When you browse on this site, cookies collect data to enhance your experience and personalize the content and advertising you see.
Visit our Privacy Policy to learn more. By continuing to use the site, you agree to this use of cookies and data.

Tiempo cada hora Staruhino

Hoy, 15 Agosto, Sábado

Tiempo Temperatura Precipitaciones Viento Presión Humedad
00:00 +9°C° 0 mm 2 mps 741 mmHg 86%
01:00 +8°C° 0 mm 2 mps 741 mmHg 88%
02:00 +8°C° 0 mm 2 mps 741 mmHg 91%
03:00 +8°C° 0 mm 2 mps 742 mmHg 92%
04:00 +8°C° 0 mm 2 mps 742 mmHg 92%
05:00 +8°C° 0 mm 2 mps 742 mmHg 93%
06:00 +10°C° 0 mm 2 mps 742 mmHg 86%
07:00 +13°C° 0 mm 2 mps 742 mmHg 79%
08:00 +14°C° 0 mm 3 mps 742 mmHg 72%
09:00 +16°C° 0 mm 3 mps 742 mmHg 67%
10:00 +17°C° 0 mm 3 mps 742 mmHg 62%
11:00 +18°C° 0 mm 3 mps 742 mmHg 58%
12:00 +18°C° 0 mm 3 mps 742 mmHg 57%
13:00 +19°C° 0 mm 3 mps 742 mmHg 56%
14:00 +19°C° 0 mm 3 mps 742 mmHg 56%
15:00 +19°C° 0 mm 3 mps 741 mmHg 60%
16:00 +18°C° 0 mm 2 mps 741 mmHg 63%
17:00 +18°C° 0 mm 2 mps 741 mmHg 66%
18:00 +17°C° 0 mm 2 mps 741 mmHg 69%
19:00 +16°C° 0 mm 2 mps 741 mmHg 73%
20:00 +14°C° 0 mm 1 mps 741 mmHg 76%
21:00 +14°C° 0 mm 2 mps 741 mmHg 79%
22:00 +14°C° 0 mm 2 mps 740 mmHg 82%
23:00 +14°C° 0 mm 2 mps 740 mmHg 85%

Mañana, 16 Agosto, Domingo

Tiempo Temperatura Precipitaciones Viento Presión Humedad
00:00 +14°C° 0.4 mm 1 mps 740 mmHg 88%
01:00 +13°C° 0.4 mm 1 mps 740 mmHg 91%
02:00 +13°C° 0.4 mm 1 mps 740 mmHg 94%
03:00 +13°C° 0.6 mm 1 mps 740 mmHg 95%
04:00 +13°C° 0.6 mm 1 mps 740 mmHg 95%
05:00 +13°C° 0.6 mm 1 mps 740 mmHg 96%
06:00 +14°C° 0 mm 1 mps 740 mmHg 91%
07:00 +15°C° 0 mm 1 mps 740 mmHg 87%
08:00 +16°C° 0 mm 2 mps 740 mmHg 82%
09:00 +17°C° 0 mm 2 mps 739 mmHg 79%
10:00 +18°C° 0 mm 2 mps 739 mmHg 76%
11:00 +19°C° 0 mm 2 mps 739 mmHg 74%
12:00 +20°C° 0 mm 2 mps 739 mmHg 70%
13:00 +21°C° 0 mm 2 mps 739 mmHg 67%
14:00 +21°C° 0 mm 2 mps 739 mmHg 64%
15:00 +21°C° 0.1 mm 2 mps 739 mmHg 67%
16:00 +21°C° 0.1 mm 2 mps 738 mmHg 70%
17:00 +21°C° 0.1 mm 3 mps 738 mmHg 73%
18:00 +20°C° 0 mm 2 mps 738 mmHg 79%
19:00 +18°C° 0 mm 2 mps 738 mmHg 84%
20:00 +17°C° 0 mm 2 mps 738 mmHg 90%
21:00 +16°C° 0 mm 2 mps 738 mmHg 91%
22:00 +16°C° 0 mm 3 mps 738 mmHg 92%
23:00 +16°C° 0 mm 3 mps 738 mmHg 93%

Pasado mañana, 17 Agosto, Lunes

Tiempo Temperatura Precipitaciones Viento Presión Humedad
00:00 +14°C° 0 mm 3 mps 738 mmHg 93%
01:00 +14°C° 0 mm 3 mps 738 mmHg 93%
02:00 +14°C° 0 mm 3 mps 738 mmHg 93%
03:00 +14°C° 0 mm 3 mps 738 mmHg 93%
04:00 +14°C° 0 mm 3 mps 738 mmHg 93%
05:00 +14°C° 0 mm 3 mps 738 mmHg 93%
06:00 +17°C° 0 mm 3 mps 738 mmHg 88%
07:00 +18°C° 0 mm 3 mps 738 mmHg 83%
08:00 +20°C° 0 mm 3 mps 738 mmHg 78%
09:00 +21°C° 0.1 mm 4 mps 738 mmHg 72%
10:00 +23°C° 0.1 mm 4 mps 738 mmHg 67%
11:00 +25°C° 0.1 mm 5 mps 738 mmHg 61%
12:00 +25°C° 0.5 mm 5 mps 738 mmHg 61%
13:00 +25°C° 0.5 mm 5 mps 738 mmHg 61%
14:00 +26°C° 0.5 mm 5 mps 737 mmHg 62%
15:00 +25°C° 0.4 mm 5 mps 737 mmHg 65%
16:00 +25°C° 0.4 mm 4 mps 737 mmHg 69%
17:00 +24°C° 0.4 mm 3 mps 737 mmHg 73%
18:00 +22°C° 0.1 mm 3 mps 737 mmHg 77%
19:00 +20°C° 0.1 mm 3 mps 737 mmHg 82%
20:00 +18°C° 0.1 mm 3 mps 737 mmHg 87%
21:00 +18°C° 0 mm 3 mps 737 mmHg 88%
22:00 +17°C° 0 mm 3 mps 737 mmHg 90%
23:00 +17°C° 0 mm 2 mps 738 mmHg 92%

18 Agosto, Martes

Tiempo Temperatura Precipitaciones Viento Presión Humedad
00:00 +16°C° 0 mm 2 mps 738 mmHg 93%
01:00 +16°C° 0 mm 2 mps 738 mmHg 94%
02:00 +15°C° 0 mm 2 mps 738 mmHg 95%
03:00 +15°C° 0 mm 2 mps 738 mmHg 95%
04:00 +15°C° 0 mm 1 mps 738 mmHg 95%
05:00 +15°C° 0 mm 1 mps 738 mmHg 94%
06:00 +16°C° 0 mm 1 mps 738 mmHg 88%
07:00 +18°C° 0 mm 2 mps 739 mmHg 81%
08:00 +19°C° 0 mm 2 mps 739 mmHg 74%
09:00 +20°C° 0 mm 2 mps 739 mmHg 70%
10:00 +21°C° 0 mm 2 mps 739 mmHg 65%
11:00 +24°C° 0 mm 2 mps 739 mmHg 60%
12:00 +24°C° 0 mm 2 mps 738 mmHg 59%
13:00 +24°C° 0 mm 2 mps 738 mmHg 57%
14:00 +25°C° 0 mm 1 mps 738 mmHg 56%
15:00 +25°C° 0.1 mm 1 mps 738 mmHg 60%
16:00 +24°C° 0.1 mm 2 mps 738 mmHg 64%
17:00 +24°C° 0.1 mm 2 mps 738 mmHg 68%
18:00 +21°C° 0.1 mm 2 mps 738 mmHg 71%
19:00 +20°C° 0.1 mm 2 mps 738 mmHg 75%
20:00 +18°C° 0.1 mm 2 mps 737 mmHg 78%
21:00 +18°C° 0.5 mm 2 mps 737 mmHg 80%
22:00 +17°C° 0.5 mm 2 mps 737 mmHg 82%
23:00 +17°C° 0.5 mm 2 mps 737 mmHg 84%

19 Agosto, Miércoles

Tiempo Temperatura Precipitaciones Viento Presión Humedad
00:00 +17°C° 0.6 mm 2 mps 737 mmHg 86%
01:00 +16°C° 0.6 mm 3 mps 737 mmHg 87%
02:00 +16°C° 0.6 mm 3 mps 737 mmHg 89%
03:00 +16°C° 0 mm 3 mps 737 mmHg 89%
04:00 +16°C° 0 mm 2 mps 737 mmHg 90%
05:00 +16°C° 0 mm 2 mps 737 mmHg 90%
06:00 +17°C° 0 mm 2 mps 737 mmHg 87%
07:00 +19°C° 0 mm 1 mps 737 mmHg 85%
08:00 +20°C° 0 mm 1 mps 737 mmHg 82%
09:00 +22°C° 0.3 mm 1 mps 737 mmHg 75%
10:00 +23°C° 0.3 mm 1 mps 738 mmHg 69%
11:00 +23°C° 0.3 mm 0 mps 738 mmHg 62%
12:00 +24°C° 0.3 mm 1 mps 738 mmHg 65%
13:00 +24°C° 0.3 mm 1 mps 738 mmHg 68%
14:00 +23°C° 0.3 mm 2 mps 737 mmHg 71%
15:00 +21°C° 0.3 mm 3 mps 737 mmHg 76%
16:00 +20°C° 0.3 mm 4 mps 737 mmHg 80%
17:00 +19°C° 0.3 mm 5 mps 737 mmHg 85%
18:00 +17°C° 0.3 mm 5 mps 737 mmHg 85%
19:00 +17°C° 0.3 mm 5 mps 737 mmHg 86%
20:00 +16°C° 0.3 mm 5 mps 737 mmHg 87%
21:00 +17°C° 0 mm 5 mps 737 mmHg 85%
22:00 +17°C° 0 mm 5 mps 737 mmHg 83%
23:00 +17°C° 0 mm 6 mps 737 mmHg 81%

20 Agosto, Jueves

Tiempo Temperatura Precipitaciones Viento Presión Humedad
00:00 +17°C° 0 mm 5 mps 737 mmHg 82%
01:00 +17°C° 0 mm 5 mps 737 mmHg 83%
02:00 +17°C° 0 mm 5 mps 737 mmHg 84%
03:00 +17°C° 0 mm 5 mps 737 mmHg 85%
04:00 +18°C° 0 mm 4 mps 737 mmHg 86%
05:00 +17°C° 0 mm 4 mps 736 mmHg 87%
06:00 +18°C° 0 mm 4 mps 737 mmHg 83%
07:00 +20°C° 0 mm 4 mps 737 mmHg 78%
08:00 +21°C° 0 mm 5 mps 737 mmHg 74%
09:00 +22°C° 0 mm 4 mps 737 mmHg 70%
10:00 +23°C° 0 mm 4 mps 737 mmHg 67%
11:00 +26°C° 0 mm 4 mps 737 mmHg 64%
12:00 +27°C° 0 mm 4 mps 737 mmHg 61%
13:00 +27°C° 0 mm 4 mps 737 mmHg 58%
14:00 +28°C° 0 mm 4 mps 737 mmHg 56%
15:00 +28°C° 0 mm 4 mps 737 mmHg 59%
16:00 +27°C° 0 mm 3 mps 737 mmHg 63%
17:00 +27°C° 0 mm 2 mps 737 mmHg 67%
18:00 +25°C° 0.4 mm 2 mps 737 mmHg 71%
19:00 +23°C° 0.4 mm 2 mps 737 mmHg 74%
20:00 +20°C° 0.4 mm 2 mps 738 mmHg 78%
21:00 +20°C° 0 mm 2 mps 738 mmHg 79%
22:00 +19°C° 0 mm 2 mps 738 mmHg 79%
23:00 +19°C° 0 mm 2 mps 738 mmHg 79%
Mostrar más